Regional Weather Roundup
Issued by NWS Northern Indiana

Home | Current Version | Previous Version | Graphics & Text | Print | Product List | Glossary On
Versions: 1 2 3 4 5 6 7 8 9 10 11 12 13 14 15 16 17 18 19 20 21 22 23 24 25 26 27 28 29 30 31 32 33 34 35 36 37 38 39 40 41 42 43 44 45 46 47 48 49 50
915
ASUS43 KIWX 060410
RWRIWX

KIWX WEATHER ROUNDUP
NATIONAL WEATHER SERVICE NORTHERN INDIANA
1100 PM EST MON DEC 05 2016

NOTE: "FAIR" INDICATES FEW OR NO CLOUDS BELOW 12,000 FEET WITH NO
SIGNIFICANT WEATHER AND/OR OBSTRUCTIONS TO VISIBILITY.

* THESE STATIONS ARE NOT UNDER NWS QUALITY CONTROL. THEY ALSO MAY NOT
  REPORT WEATHER SUCH AS PRECIPITATION OR FOG.

INZ001>027-060500-
NORTHERN INDIANA

CITY           SKY/WX    TMP DP  RH WIND       PRES   REMARKS
GARY*          CLOUDY    34  34  97 E7        29.97F FOG     WCI  28
VALPARAISO     CLOUDY    30  27  88 E9        29.97F FOG     WCI  22
MICHIGAN CITY* CLOUDY    32  32 100 E6        29.99S WCI  26
LAPORTE*       CLOUDY   N/A N/A N/A E8        29.98F HAZE
KNOX*          CLEAR     32  19  59 E7        29.96F WCI  26
SOUTH BEND     CLOUDY    31  30  96 E8        30.00S WCI  23
GOSHEN         CLEAR     29  25  85 E6        30.00S FOG     WCI  23
MONTICELLO*    PTCLDY    32  29  87 E3        29.93F
LOGANSPORT*    PTCLDY    32  30  93 E7        29.96R WCI  26
ROCHESTER*     CLEAR     32  32 100 E7        29.96F WCI  26
WARSAW*        CLEAR     30  28  93 E7        29.98F WCI  23
ANGOLA*        CLEAR     28  25  86 SE5       29.99F WCI  23
FORT WAYNE     PTCLDY    29  27  92 E8        29.99F WCI  21
HUNTINGTON*    CLEAR     31  29  95 E7        29.97F WCI  24
PERU/GRISSOM   MOCLDY    32  31  99 E8        29.93F WCI  25
MARION*        CLEAR     32  31  94 E8        29.95F WCI  25

$$
INZ028>050-060500-
CENTRAL INDIANA

CITY           SKY/WX    TMP DP  RH WIND       PRES   REMARKS
LAFAYETTE      PTCLDY    32  31  96 E8        29.92F WCI  25
KOKOMO*        CLEAR     32  30  92 E9        29.95S WCI  24
MUNCIE*        CLEAR     32  29  88 MISG      29.95F
INDIANAPOLIS   MOCLDY    36  31  82 E13       29.91F

$$
MIZ043>046-050>051-056>058-064>065-071>073-077>080-060500-
SOUTHWEST LOWER MICHIGAN

CITY           SKY/WX    TMP DP  RH WIND       PRES   REMARKS
BATTLE CREEK   CLOUDY    30  28  92 E3        30.01F
BENTON HARBOR  CLOUDY    32  29  88 SE8       29.99F FOG     WCI  25
COLDWATER*     CLEAR     27  26  98 CALM      30.00F FOG
HILLSDALE*     CLEAR     28  27  93 E5        29.99F FOG     WCI  23
HOLLAND        CLEAR     31  28  89 E8        30.00F WCI  23
GRAND RAPIDS   PTCLDY    30  27  88 SE6       30.02S WCI  24
KALAMAZOO      PTCLDY    30  26  85 CALM      30.01F FOG
STURGIS*       CLEAR     28  26  93 E3        29.99F FOG
THREE RIVERS*  FAIR      31  29  93 CALM      30.01F FOG

$$
OHZ001>008-015>018-024>025-060500-
NORTHWEST OHIO

CITY           SKY/WX    TMP DP  RH WIND       PRES   REMARKS
WAUSEON*       FAIR      30  28  93 E5        30.03R WCI  25
DEFIANCE       CLEAR     30  25  81 E3        30.02F
FINDLAY        CLEAR     31  25  78 E6        30.00F WCI  25
TOLEDO EXPRESS CLEAR     25  25 100 CALM      30.03F FOG
TOLEDO METCALF CLEAR     29  27  92 E3        30.05S
LIMA           CLEAR     30  28  92 SE9       29.99F WCI  22

$$
AND FOR LAKE MICHIGAN COASTAL AND OPEN LAKE BUOY OBSERVATIONS

STATION/POSITION TEMP    WIND        PRES    VSBY  WAVE
                 AIR SEA DIR/SP/G                  HT/PER
                 (F)     (DEG/KT/KT) (MB)    (MI)  (FT/S)
CALUMET HARBOR    35     110/  9/ 13 1014.2F
BURNS HARBOR      33     100/ 10/ 12 1015.6F
SAINT JOSEPH      32      CALM  /  6 1016.3

$$
&&




USA.gov is the U.S. government's official web portal to all federal, state and local government web resources and services.